When you browse on this site, cookies collect data to enhance your experience and personalize the content and advertising you see.
Visit our Privacy Policy to learn more. By continuing to use the site, you agree to this use of cookies and data.

Hourly Weather Obrazcovo

Today, 5 August, Wednesday

Time Temperature Precipitation Wind Pressure Humidity
00:00 +15°C° 0 mm 2 mps 744 mmHg 80%
01:00 +15°C° 0 mm 2 mps 744 mmHg 82%
02:00 +15°C° 0 mm 2 mps 744 mmHg 84%
03:00 +15°C° 0 mm 2 mps 744 mmHg 84%
04:00 +15°C° 0 mm 1 mps 744 mmHg 84%
05:00 +15°C° 0 mm 1 mps 744 mmHg 85%
06:00 +17°C° 0 mm 2 mps 745 mmHg 80%
07:00 +19°C° 0 mm 2 mps 745 mmHg 75%
08:00 +20°C° 0 mm 2 mps 745 mmHg 69%
09:00 +23°C° 0 mm 2 mps 745 mmHg 65%
10:00 +24°C° 0 mm 2 mps 745 mmHg 61%
11:00 +25°C° 0 mm 1 mps 745 mmHg 57%
12:00 +25°C° 0 mm 1 mps 745 mmHg 55%
13:00 +26°C° 0 mm 1 mps 745 mmHg 53%
14:00 +24°C° 0 mm 0 mps 745 mmHg 52%
15:00 +24°C° 0 mm 0 mps 745 mmHg 54%
16:00 +24°C° 0 mm 0 mps 745 mmHg 56%
17:00 +24°C° 0 mm 0 mps 744 mmHg 58%
18:00 +22°C° 0 mm 0 mps 744 mmHg 63%
19:00 +22°C° 0 mm 1 mps 745 mmHg 69%
20:00 +20°C° 0 mm 1 mps 745 mmHg 74%
21:00 +19°C° 0 mm 1 mps 745 mmHg 76%
22:00 +19°C° 0 mm 1 mps 745 mmHg 78%
23:00 +18°C° 0 mm 1 mps 745 mmHg 80%

Tomorrow, 6 August, Thursday

Time Temperature Precipitation Wind Pressure Humidity
00:00 +18°C° 0 mm 1 mps 745 mmHg 82%
01:00 +15°C° 0 mm 0 mps 745 mmHg 83%
02:00 +15°C° 0 mm 0 mps 745 mmHg 84%
03:00 +15°C° 0 mm 0 mps 745 mmHg 84%
04:00 +15°C° 0 mm 0 mps 745 mmHg 83%
05:00 +16°C° 0 mm 0 mps 745 mmHg 83%
06:00 +17°C° 0 mm 0 mps 746 mmHg 78%
07:00 +21°C° 0 mm 1 mps 746 mmHg 73%
08:00 +23°C° 0 mm 1 mps 746 mmHg 68%
09:00 +24°C° 0 mm 1 mps 746 mmHg 64%
10:00 +25°C° 0 mm 1 mps 746 mmHg 60%
11:00 +27°C° 0 mm 1 mps 746 mmHg 56%
12:00 +27°C° 0 mm 1 mps 746 mmHg 55%
13:00 +27°C° 0 mm 1 mps 746 mmHg 54%
14:00 +28°C° 0 mm 1 mps 746 mmHg 53%
15:00 +27°C° 0 mm 1 mps 745 mmHg 57%
16:00 +27°C° 0 mm 1 mps 745 mmHg 61%
17:00 +27°C° 0 mm 1 mps 745 mmHg 65%
18:00 +25°C° 0 mm 2 mps 745 mmHg 72%
19:00 +23°C° 0 mm 2 mps 745 mmHg 78%
20:00 +21°C° 0 mm 2 mps 745 mmHg 84%
21:00 +20°C° 0 mm 2 mps 745 mmHg 88%
22:00 +19°C° 0 mm 3 mps 745 mmHg 91%
23:00 +19°C° 0 mm 3 mps 745 mmHg 95%

Day after tomorrow, 7 August, Friday

Time Temperature Precipitation Wind Pressure Humidity
00:00 +18°C° 0 mm 3 mps 745 mmHg 93%
01:00 +17°C° 0 mm 3 mps 746 mmHg 92%
02:00 +16°C° 0 mm 3 mps 746 mmHg 90%
03:00 +16°C° 0 mm 3 mps 746 mmHg 91%
04:00 +14°C° 0 mm 3 mps 746 mmHg 92%
05:00 +14°C° 0 mm 3 mps 746 mmHg 93%
06:00 +17°C° 0 mm 4 mps 746 mmHg 88%
07:00 +18°C° 0 mm 4 mps 746 mmHg 84%
08:00 +20°C° 0 mm 5 mps 747 mmHg 79%
09:00 +21°C° 0 mm 5 mps 747 mmHg 73%
10:00 +22°C° 0 mm 5 mps 747 mmHg 67%
11:00 +23°C° 0 mm 5 mps 747 mmHg 60%
12:00 +23°C° 0 mm 5 mps 747 mmHg 59%
13:00 +23°C° 0 mm 5 mps 747 mmHg 58%
14:00 +23°C° 0 mm 5 mps 747 mmHg 57%
15:00 +23°C° 0 mm 5 mps 747 mmHg 60%
16:00 +23°C° 0 mm 4 mps 747 mmHg 63%
17:00 +22°C° 0 mm 3 mps 746 mmHg 67%
18:00 +21°C° 0 mm 3 mps 747 mmHg 70%
19:00 +19°C° 0 mm 3 mps 747 mmHg 74%
20:00 +18°C° 0 mm 3 mps 747 mmHg 77%
21:00 +17°C° 0 mm 3 mps 747 mmHg 79%
22:00 +16°C° 0 mm 3 mps 747 mmHg 80%
23:00 +16°C° 0 mm 3 mps 747 mmHg 82%

8 August, Saturday

Time Temperature Precipitation Wind Pressure Humidity
00:00 +14°C° 0 mm 3 mps 747 mmHg 84%
01:00 +14°C° 0 mm 3 mps 747 mmHg 85%
02:00 +13°C° 0 mm 3 mps 746 mmHg 87%
03:00 +13°C° 0 mm 3 mps 747 mmHg 87%
04:00 +13°C° 0 mm 3 mps 747 mmHg 88%
05:00 +13°C° 0 mm 3 mps 747 mmHg 89%
06:00 +16°C° 0 mm 3 mps 747 mmHg 83%
07:00 +18°C° 0 mm 3 mps 747 mmHg 77%
08:00 +19°C° 0 mm 4 mps 747 mmHg 72%
09:00 +20°C° 0 mm 4 mps 747 mmHg 67%
10:00 +21°C° 0 mm 4 mps 746 mmHg 63%
11:00 +22°C° 0 mm 4 mps 746 mmHg 58%
12:00 +23°C° 0 mm 4 mps 746 mmHg 58%
13:00 +23°C° 0 mm 4 mps 746 mmHg 57%
14:00 +23°C° 0 mm 4 mps 745 mmHg 57%
15:00 +24°C° 0 mm 3 mps 745 mmHg 60%
16:00 +24°C° 0 mm 3 mps 745 mmHg 63%
17:00 +23°C° 0 mm 2 mps 744 mmHg 66%
18:00 +20°C° 0 mm 2 mps 744 mmHg 70%
19:00 +20°C° 0 mm 1 mps 744 mmHg 74%
20:00 +18°C° 0 mm 1 mps 744 mmHg 79%
21:00 +16°C° 0 mm 1 mps 744 mmHg 80%
22:00 +16°C° 0 mm 1 mps 744 mmHg 81%
23:00 +16°C° 0 mm 1 mps 744 mmHg 81%

9 August, Sunday

Time Temperature Precipitation Wind Pressure Humidity
00:00 +15°C° 0 mm 1 mps 743 mmHg 83%
01:00 +15°C° 0 mm 1 mps 743 mmHg 86%
02:00 +14°C° 0 mm 1 mps 743 mmHg 88%
03:00 +14°C° 0 mm 2 mps 742 mmHg 88%
04:00 +14°C° 0 mm 2 mps 742 mmHg 89%
05:00 +15°C° 0 mm 2 mps 742 mmHg 90%
06:00 +16°C° 0 mm 2 mps 742 mmHg 85%
07:00 +18°C° 0 mm 2 mps 742 mmHg 81%
08:00 +20°C° 0 mm 2 mps 742 mmHg 77%
09:00 +20°C° 0.6 mm 2 mps 741 mmHg 75%
10:00 +21°C° 0.6 mm 2 mps 741 mmHg 74%
11:00 +23°C° 0.6 mm 2 mps 741 mmHg 72%
12:00 +23°C° 0.1 mm 2 mps 741 mmHg 66%
13:00 +24°C° 0.1 mm 3 mps 740 mmHg 61%
14:00 +25°C° 0.1 mm 3 mps 740 mmHg 55%
15:00 +24°C° 0 mm 3 mps 740 mmHg 58%
16:00 +24°C° 0 mm 2 mps 740 mmHg 61%
17:00 +24°C° 0 mm 2 mps 740 mmHg 64%
18:00 +21°C° 0 mm 2 mps 740 mmHg 68%
19:00 +19°C° 0 mm 2 mps 740 mmHg 71%
20:00 +18°C° 0 mm 1 mps 740 mmHg 75%
21:00 +18°C° 0 mm 1 mps 740 mmHg 78%
22:00 +16°C° 0 mm 1 mps 740 mmHg 81%
23:00 +16°C° 0 mm 1 mps 740 mmHg 84%

10 August, Monday

Time Temperature Precipitation Wind Pressure Humidity
00:00 +15°C° 0 mm 1 mps 740 mmHg 85%
01:00 +15°C° 0 mm 1 mps 740 mmHg 86%
02:00 +14°C° 0 mm 2 mps 740 mmHg 87%
03:00 +14°C° 0 mm 2 mps 740 mmHg 86%
04:00 +14°C° 0 mm 2 mps 740 mmHg 86%
05:00 +14°C° 0 mm 2 mps 740 mmHg 85%
06:00 +16°C° 0 mm 2 mps 740 mmHg 81%
07:00 +17°C° 0 mm 2 mps 740 mmHg 77%
08:00 +19°C° 0 mm 3 mps 740 mmHg 72%
09:00 +20°C° 0.1 mm 3 mps 740 mmHg 69%
10:00 +21°C° 0.1 mm 3 mps 740 mmHg 66%
11:00 +21°C° 0.1 mm 4 mps 740 mmHg 62%
12:00 +21°C° 0.1 mm 4 mps 740 mmHg 61%
13:00 +21°C° 0.1 mm 4 mps 740 mmHg 60%
14:00 +21°C° 0.1 mm 4 mps 740 mmHg 59%
15:00 +21°C° 0 mm 4 mps 740 mmHg 61%
16:00 +21°C° 0 mm 4 mps 740 mmHg 62%
17:00 +20°C° 0 mm 3 mps 740 mmHg 64%
18:00 +18°C° 0 mm 3 mps 740 mmHg 67%
19:00 +16°C° 0 mm 3 mps 740 mmHg 70%
20:00 +15°C° 0 mm 2 mps 740 mmHg 74%
21:00 +14°C° 0 mm 2 mps 741 mmHg 76%
22:00 +13°C° 0 mm 2 mps 741 mmHg 78%
23:00 +12°C° 0 mm 2 mps 741 mmHg 80%
Show more